Regional Weather Roundup
Issued by NWS

Home | Current Version | Previous Version | Graphics & Text | Print | Product List | Glossary On
Versions: 1 2 3 4 5 6 7 8 9 10 11 12 13 14 15 16 17 18 19 20 21 22 23 24 25 26 27 28 29 30 31 32 33 34 35 36 37 38 39 40 41 42 43 44 45 46 47 48 49 50
000
ASUS45 KSLC 030210
RWRUT

UTAH REGIONAL WEATHER ROUNDUP
NATIONAL WEATHER SERVICE SALT LAKE CITY UT
800 PM MDT THU JUL 02 2015

UTZ001>011-023>025-030300-

NORTHERN UTAH

CITY           SKY/WX    TMP DP  RH WIND       PRES   REMARKS
BRIGHAM CITY   MOSUNNY   95  37  13 SW7       29.97S HX  90
HILL AFB       PTCLDY    90  45  20 W6        30.02S
LOGAN          SUNNY     89  55  31 NE6       29.98S
OGDEN          PTCLDY    91  42  18 SW5       29.98S
PROVO AIRPORT  PTCLDY    91  36  14 NW7       29.99S
SALT LAKE CITY MOCLDY    95  45  17 N7        29.96S HX  91
VERNAL         PTCLDY    90  45  21 W7        30.01S
WENDOVER       CLOUDY    91  45  19 NW14      29.99S
HEBER CITY     PTCLDY    82  37  20 N9        30.09S
WEST JORDAN    CLEAR     90  43  19 W6        30.01S

$$

UTZ012>022-026-027-030300-

SOUTHERN/CENTRAL UTAH

CITY           SKY/WX    TMP DP  RH WIND       PRES   REMARKS
BLANDING       PTCLDY    83  49  30 SE8       30.13F
BRYCE CANYON   CLOUDY    67  50  54 NW6       30.29F
CEDAR CITY     CLOUDY    81  45  28 CALM      30.11F
DELTA          PTCLDY    94  34  12 N18       29.99R
HANKSVILLE     PTCLDY    97  34  11 E6        29.93S HX  91
MILFORD        CLOUDY    82  51  34 S12       30.05S
MOAB/CYNLANDS  CLEAR     95  45  17 CALM      29.92S HX  91
PRICE          CLEAR     91  32  12 NW12      30.06S
ST GEORGE      PTCLDY    95  52  23 S16       29.89F HX  92
KANAB          CLOUDY    79  57  47 N10       30.11F

$$

REGIONAL REPORTS     COLORADO/ARIZONA

CITY           SKY/WX    TMP DP  RH WIND       PRES   REMARKS
CRAIG, CO      PTCLDY    83  39  21 NE5       30.11R
GRAND JUNCTION MOCLDY    91  46  21 SW3       29.96S
RIFLE          CLEAR     90  39  16 N7        30.03R
MONTROSE       MOCLDY    88  45  22 CALM      30.07R
CORTEZ         CLEAR     76  56  49 N8        30.10S
PAGE, AZ       MOCLDY    94  48  20 NW12G17   29.95S HX  90
GRAND CANYON   CLOUDY    76  52  43 VRB7      30.19R
KINGMAN        CLEAR     94  47  20 SW16      29.94S HX  90
FLAGSTAFF      MOCLDY    65  57  75 N5        30.23S

$$

REGIONAL REPORTS    NEVADA/IDAHO/WYOMING

CITY           SKY/WX    TMP DP  RH WIND       PRES   REMARKS
LAS VEGAS, NV  MOSUNNY  103  52  18 S8        29.75S HX 100
ELY            PTSUNNY   78  46  32 N3        30.20F
ELKO           CLOUDY    81  49  32 SW8       30.10S
POCATELLO, ID  MOSUNNY   92  37  14 SW9       29.99F
BURLEY         SUNNY     86  58  38 SW7       29.96S
EVANSTON, WY   PTCLDY    81  40  23 NW12      30.22R
ROCK SPRINGS   PTCLDY    73  45  36 E16       30.18R
KEMMERER       CLEAR    N/A N/A N/A NW13      30.23S

$$



USA.gov is the U.S. government's official web portal to all federal, state and local government web resources and services.